Home   Weather   Osage City   Past weeks

Flag for USA Past Weather in Osage City, Kansas, USA — Yesterday and Last 2 Weeks

Now
49 °F

Sunny.


Feels Like: N/A
Forecast: 47 / 70 °F
Wind: N/A

Location: Forbes Field

Current Time: Sep 29, 2016 at 8:48:34 AM

Latest Report: Sep 29, 2016 at 7:53 AM


Visibility: 10 mi

Pressure: 30.38 "Hg

Humidity: 93%

Dew Point: 47 °F

Location of Osage CityLocation

Past Weather in Osage City — Graph

°F

Osage City Temperature Yesterday

Maximum temperature yesterday: 70 °F (at 3:53 PM)
Minimum temperature yesterday: 53 °F (at 11:53 PM)
Average temperature yesterday: 62 °F

High & Low Weather Summary for the Past Weeks

 TemperatureHumidityPressure
High93 °F (Sep 19, 2:53 PM)100% (Sep 25, 5:53 AM)30.35 "Hg (Sep 25, 5:53 AM)
Low47 °F (Sep 26, 6:53 AM)30% (Sep 26, 3:53 PM)29.85 "Hg (Sep 28, 12:53 AM)
Average72 °F73%30.02 "Hg
* Reported Sep 14 6:04 AM — Sep 29 6:53 AM, Osage City, Weather by CustomWeather, © 2016

Note: Actual official high and low records may vary slightly from our data, if they occured in-between our weather recording intervals... More about our weather records

Advertising

Osage City Weather History for the Previous 24 Hours

Scroll right to see more
 ConditionsComfort  
Time TempWeatherWind HumidityBarometerVisibility
6:53 AM
Thu, Sep 29
47 °FClear.6 mph93%30.35 "Hg10 mi
5:53 AM48 °FClear.7 mph89%30.33 "Hg10 mi
4:53 AM50 °FClear.7 mph86%30.31 "Hg10 mi
3:53 AM50 °FClear.9 mph86%30.30 "Hg10 mi
2:53 AM50 °FClear.7 mph89%30.30 "Hg10 mi
1:53 AM52 °FClear.5 mph86%30.29 "Hg10 mi
12:53 AM51 °FPassing clouds.6 mph89%30.29 "Hg10 mi
11:53 PM
Wed, Sep 28
53 °FPassing clouds.6 mph83%30.29 "Hg10 mi
10:53 PM55 °FClear.3 mph77%30.28 "Hg10 mi
9:53 PM57 °FClear.5 mph74%30.26 "Hg10 mi
8:53 PM58 °FClear.6 mph72%30.24 "Hg10 mi
7:53 PM60 °FClear.6 mph65%30.20 "Hg10 mi
6:53 PM64 °FSunny.8 mph54%30.18 "Hg10 mi
5:53 PM68 °FSunny.12 mph45%30.16 "Hg10 mi
4:53 PM69 °FSunny.9 mph45%30.14 "Hg10 mi
3:53 PM70 °FSunny.14 mph44%30.12 "Hg10 mi
2:53 PM69 °FSunny.13 mph47%30.12 "Hg10 mi
1:53 PM68 °FSunny.16 mph49%30.12 "Hg10 mi
12:53 PM67 °FSunny.15 mph51%30.11 "Hg10 mi
11:53 AM66 °FSunny.14 mph50%30.10 "Hg10 mi
10:53 AM65 °FSunny.16 mph52%30.09 "Hg10 mi
9:53 AM63 °FSunny.16 mph54%30.06 "Hg10 mi
8:53 AM60 °FSunny.10 mph62%30.03 "Hg10 mi
Weather by CustomWeather, © 2016

See weather overviewHow to use our weather pages